{"data":{"norad_id":62821,"epoch":"2026-09-21T20:33:22.602240Z","epoch_age_seconds":50816,"freshness":"FRESH","line1":"1 62821U 25018R   26264.85651160  .00012012  00000+0  36602-3 0  9992","line2":"2 62821  53.1585 115.4962 0001148  74.8062 285.3068 15.34404536 93253","mean_motion":15.34404536,"eccentricity":0.0001148,"inclination_deg":53.1585,"raan_deg":115.4962,"arg_perigee_deg":74.8062,"mean_anomaly_deg":285.3068,"bstar":0.00036602,"rev_number":9325,"period_min":93.847480649001,"perigee_km":461.90443138055,"apogee_km":463.47508520425,"semimajor_km":6840.8267582924,"source":"CELESTRAK","updated_at":"2026-09-22T09:00:49.669635Z"}}